Wind_Speed
42 42 41 40 40 40 38 35 32 29 29 33 35 37 38 45 48 53 55 59 67 69 74 78 81 80 83 85 91 100 103 99 95 90 97 100 108 100
44 43 43 42 41 40 38 33 29 27 25 29 32 35 35 43 48 50 53 58 65 69 72 77 80 80 85 90 96 103 106 103 98 96 102 106 111 101
44 44 42 41 40 38 37 31 27 25 22 26 30 34 34 42 47 47 52 57 62 66 69 74 77 81 88 94 98 105 108 104 102 100 105 110 114 102
42 40 39 37 35 33 32 28 24 21 20 24 29 32 30 38 44 45 52 55 59 63 67 72 76 82 91 97 100 108 110 107 105 103 108 115 118 108
40 37 36 33 30 29 29 25 21 18 18 23 26 29 26 36 42 45 51 53 57 61 66 72 78 85 93 99 103 110 111 110 109 108 112 119 120 109
37 36 34 32 29 26 25 23 17 16 16 19 24 25 22 34 40 44 48 51 56 61 65 71 77 86 94 99 106 113 113 112 112 113 116 121 124 111
35 35 34 32 30 27 22 20 17 12 12 16 20 19 17 31 37 42 47 50 55 59 64 71 78 89 97 103 109 115 115 115 114 116 119 122 123 115
36 32 31 29 27 25 22 17 15 11 9 11 15 13 14 28 37 41 46 50 53 58 65 73 80 90 99 106 111 117 117 117 117 120 121 128 123 113
39 35 32 30 27 23 20 17 12 9 7 8 10 8 14 28 35 40 46 50 52 56 65 73 82 93 101 107 112 118 119 120 120 124 127 132 123 118
43 40 36 32 29 24 20 16 12 8 4 5 5 6 15 28 34 37 43 48 51 57 65 75 85 96 102 109 113 120 120 121 122 130 138 133 125 117
46 42 38 33 28 24 20 15 11 7 3 1 4 8 17 26 31 37 44 49 52 57 65 75 87 98 104 111 115 124 125 125 127 134 141 135 124 120
44 42 39 36 31 25 20 16 10 7 4 4 7 13 20 27 30 36 42 46 51 57 65 75 88 99 106 111 116 125 126 127 131 137 144 134 129 123
38 38 38 36 31 26 22 17 12 8 5 7 11 16 20 23 26 34 41 46 53 58 66 75 89 100 106 111 117 125 129 131 136 142 145 138 131 127
42 42 39 36 32 28 24 19 13 9 7 8 12 18 21 20 23 30 39 46 52 58 67 76 89 98 106 112 119 127 129 135 140 147 142 139 132 129
48 46 43 38 34 29 24 21 16 10 8 9 10 16 20 21 23 29 38 47 54 61 69 78 88 98 106 114 123 130 132 137 144 152 141 138 131 130
55 54 47 41 37 31 26 23 18 13 10 10 10 12 18 24 26 31 39 49 57 64 71 80 88 98 107 116 123 130 134 138 146 154 140 136 128 125
57 56 52 45 37 33 29 25 21 16 13 12 11 12 15 24 29 34 41 49 58 66 73 81 89 98 107 117 125 133 134 138 147 155 144 137 127 121
57 55 52 48 42 37 32 29 24 19 16 15 13 14 15 24 31 35 40 47 57 65 71 78 87 99 108 118 124 133 134 138 149 157 148 140 131 124
55 54 53 51 47 43 38 32 26 22 18 17 16 14 17 23 32 36 40 46 56 64 71 77 86 98 108 117 124 130 135 140 147 158 150 143 137 124
54 52 51 51 50 45 40 35 29 24 21 19 18 17 18 20 29 35 39 46 56 64 71 77 86 95 105 115 123 129 135 139 146 155 151 145 137 126
54 51 52 53 52 48 43 39 33 27 23 21 20 19 19 20 26 35 40 46 53 61 68 74 82 92 101 111 120 126 132 138 148 155 150 141 139 133
55 54 52 52 52 50 45 40 35 31 26 22 20 21 19 21 27 32 35 42 51 58 65 70 79 90 99 109 117 125 130 138 147 157 148 143 138 135
54 55 54 53 53 51 49 41 36 35 29 25 22 21 22 20 27 33 34 41 48 57 64 70 77 87 96 105 112 122 129 134 144 153 152 144 140 133
Wind_Direction
316 315 314 313 309 305 303 299 293 284 271 264 252 240 228 227 221 218 214 211 211 210 208 206 205 200 196 193 192 192 192 192 189 185 179 180 180 179
324 323 321 318 314 311 310 308 301 288 274 261 248 236 223 219 219 214 210 209 208 206 205 203 201 195 191 190 191 189 190 190 187 183 178 179 180 177
327 325 322 319 316 313 311 310 303 290 274 257 243 235 219 213 217 210 207 206 206 204 201 200 197 191 188 188 189 187 188 187 185 182 178 178 178 176
331 328 324 321 318 315 314 314 306 293 271 255 241 235 220 212 214 207 205 204 203 201 198 196 194 187 186 187 186 186 186 185 183 180 177 178 176 177
334 331 329 326 325 321 318 317 309 295 270 254 244 240 218 207 210 205 203 201 199 197 195 193 190 185 184 185 184 185 184 183 182 179 177 178 174 175
341 339 338 337 336 330 323 320 313 295 273 255 246 244 217 204 206 202 201 197 197 195 192 190 187 183 183 183 183 184 183 182 180 179 177 178 175 175
350 349 347 344 342 339 335 324 320 301 272 253 248 246 215 202 204 199 196 194 196 193 189 186 185 182 182 181 183 183 182 181 179 179 176 176 176 175
358 354 352 350 349 343 341 337 325 317 278 253 249 242 201 195 201 197 194 192 194 190 186 184 182 180 181 181 182 182 181 179 178 178 175 173 173 175
2 2 1 360 358 353 348 347 344 331 294 259 244 227 184 190 199 194 193 189 189 188 185 182 180 179 180 181 181 180 180 177 177 176 174 171 173 173
7 7 7 4 3 2 358 354 356 352 318 266 233 183 172 186 195 192 190 187 185 185 183 180 178 179 180 181 181 179 178 176 176 175 172 171 172 176
6 5 7 8 9 9 7 5 1 10 8 225 176 153 164 185 189 188 188 186 181 182 182 179 178 179 180 180 180 179 178 176 176 175 175 174 174 178
4 5 9 11 11 13 13 16 16 21 66 114 139 148 165 182 187 184 185 183 177 180 180 179 178 180 180 180 179 179 178 177 176 175 174 175 178 177
10 13 12 11 12 16 19 19 28 40 80 120 142 149 165 182 183 181 180 179 176 176 177 178 179 180 180 179 179 178 177 176 176 175 175 178 180 180
23 22 19 15 16 19 24 24 30 49 80 117 144 153 161 175 176 176 177 175 173 173 176 177 179 180 179 178 178 178 176 176 176 175 175 178 179 182
26 24 21 19 21 24 28 33 36 49 77 107 138 156 160 162 164 170 174 171 171 172 174 177 180 180 179 178 178 177 176 176 176 174 175 178 179 181
28 23 21 23 24 26 32 37 42 53 75 99 122 150 160 155 158 164 172 172 170 171 174 177 179 180 178 178 178 178 177 177 177 176 176 178 178 180
29 26 21 23 28 31 36 41 44 55 73 88 107 132 155 155 157 163 171 173 171 171 174 177 178 179 178 179 179 179 178 178 178 177 177 177 178 180
31 26 25 27 30 35 39 45 46 56 70 85 96 121 145 155 156 162 169 172 171 172 174 177 179 179 179 180 180 180 180 180 179 178 179 179 180 185
30 28 28 29 31 34 38 42 48 56 67 81 94 112 135 155 155 161 167 170 170 172 174 177 179 180 180 181 181 181 181 181 180 181 183 182 184 184
30 29 30 33 32 34 38 41 47 55 65 79 92 106 128 152 156 158 163 169 171 172 174 178 179 182 182 182 182 181 182 181 181 182 185 187 187 183
31 32 32 35 36 36 38 41 44 53 62 75 89 101 119 139 154 157 164 169 172 173 174 178 179 181 183 183 183 182 183 182 182 183 186 187 186 186
25 32 33 36 37 37 38 41 49 53 60 70 85 99 112 131 149 156 161 166 169 171 173 177 180 181 184 185 185 183 184 184 184 184 187 189 190 190
23 27 33 35 38 39 40 42 48 55 58 67 79 94 108 125 146 150 157 164 169 171 173 176 180 183 185 186 186 186 185 185 186 187 189 191 193 192
Height
10093 10084 10076 10068 10060 10053 10048 10045 10042 10041 10041 10039 10040 10045 10052 10059 10068 10077 10089 10103 10118 10136 10153 10173 10196 10223 10251 10278 10300 10323 10348 10378 10407 10435 10458 10480 10502 10527
10083 10073 10065 10056 10049 10041 10036 10033 10030 10029 10028 10026 10028 10033 10040 10047 10054 10067 10079 10090 10104 10121 10140 10160 10183 10211 10238 10260 10281 10308 10336 10366 10397 10423 10446 10470 10496 10521
10073 10064 10055 10047 10039 10032 10027 10024 10021 10019 10018 10016 10017 10022 10031 10037 10043 10058 10068 10079 10093 10111 10130 10150 10174 10201 10225 10246 10268 10297 10325 10357 10386 10412 10437 10462 10487 10513
10065 10056 10047 10040 10033 10025 10019 10016 10012 10011 10009 10007 10010 10015 10023 10030 10037 10050 10058 10071 10086 10104 10122 10142 10165 10191 10213 10233 10260 10286 10315 10345 10374 10402 10429 10450 10477 10501
10059 10050 10042 10035 10028 10020 10014 10010 10006 10004 10003 10001 10004 10009 10018 10024 10031 10041 10050 10063 10078 10096 10114 10133 10155 10180 10202 10225 10252 10276 10307 10334 10361 10392 10417 10443 10469 10491
10056 10046 10037 10030 10023 10017 10010 10005 10002 9999 9998 9998 9999 10005 10014 10019 10025 10034 10045 10058 10072 10088 10106 10127 10149 10173 10195 10220 10242 10264 10298 10326 10353 10381 10407 10434 10461 10485
10054 10043 10034 10026 10019 10013 10008 10002 9998 9996 9994 9995 9997 10002 10010 10015 10021 10031 10041 10053 10066 10083 10102 10122 10142 10163 10185 10209 10233 10259 10288 10316 10346 10373 10399 10426 10454 10477
10053 10044 10034 10026 10018 10011 10005 10001 9997 9994 9993 9993 9994 10000 10006 10012 10017 10026 10037 10048 10061 10077 10095 10114 10135 10158 10179 10201 10223 10251 10281 10309 10340 10366 10393 10420 10447 10470
10053 10043 10034 10025 10017 10010 10004 9999 9996 9993 9992 9992 9993 9998 10004 10009 10014 10024 10034 10045 10059 10077 10092 10110 10131 10152 10174 10196 10220 10248 10276 10305 10333 10361 10385 10414 10440 10462
10052 10042 10034 10026 10018 10011 10005 10000 9995 9993 9992 9992 9993 9997 10003 10006 10013 10023 10034 10045 10058 10073 10089 10107 10126 10147 10169 10191 10216 10245 10274 10302 10328 10355 10383 10409 10433 10455
10053 10044 10035 10028 10020 10012 10005 10001 9997 9993 9992 9993 9994 9997 10001 10007 10013 10021 10031 10042 10055 10072 10088 10106 10124 10144 10164 10187 10211 10238 10266 10294 10321 10351 10378 10402 10427 10449
10058 10048 10038 10029 10021 10014 10008 10002 9998 9995 9993 9994 9996 9999 10002 10006 10012 10021 10031 10044 10057 10071 10088 10104 10124 10142 10162 10184 10209 10237 10265 10293 10319 10346 10372 10399 10420 10444
10067 10053 10041 10031 10023 10016 10011 10006 10001 9998 9996 9995 9997 10000 10004 10008 10015 10022 10032 10044 10055 10071 10087 10105 10121 10138 10160 10185 10209 10232 10259 10290 10317 10341 10368 10393 10417 10440
10068 10055 10045 10035 10027 10020 10014 10009 10005 10001 9999 9999 10000 10002 10006 10010 10017 10026 10034 10046 10059 10073 10089 10104 10121 10139 10159 10185 10209 10234 10262 10286 10312 10339 10363 10386 10412 10434
10069 10060 10050 10040 10032 10024 10017 10012 10008 10005 10002 10002 10004 10006 10008 10013 10020 10029 10038 10048 10061 10073 10088 10104 10121 10140 10162 10185 10207 10233 10260 10286 10312 10337 10361 10387 10410 10432
10076 10066 10056 10047 10039 10031 10023 10016 10012 10010 10007 10006 10008 10011 10013 10017 10023 10032 10042 10051 10061 10075 10089 10105 10123 10142 10164 10187 10210 10236 10259 10284 10308 10336 10365 10386 10408 10428
10083 10074 10063 10053 10044 10035 10029 10023 10018 10015 10013 10012 10013 10015 10018 10021 10027 10035 10045 10056 10067 10078 10092 10107 10124 10146 10168 10188 10209 10234 10258 10284 10310 10335 10357 10381 10406 10426
10095 10086 10075 10062 10051 10042 10036 10029 10025 10022 10019 10017 10019 10021 10024 10027 10032 10041 10051 10062 10073 10084 10098 10114 10131 10149 10168 10188 10210 10236 10260 10284 10308 10334 10359 10380 10401 10420
10108 10098 10085 10071 10060 10051 10043 10038 10032 10028 10026 10025 10025 10028 10031 10034 10038 10046 10057 10069 10079 10091 10104 10118 10135 10152 10170 10190 10212 10236 10257 10280 10307 10334 10356 10376 10396 10414
10121 10109 10096 10082 10071 10061 10053 10047 10041 10037 10034 10033 10033 10035 10039 10043 10047 10054 10064 10075 10084 10095 10107 10122 10137 10156 10174 10191 10211 10235 10259 10284 10306 10332 10353 10377 10396 10416
10130 10119 10106 10093 10082 10073 10064 10057 10052 10047 10045 10043 10043 10045 10048 10052 10057 10062 10070 10080 10092 10103 10116 10130 10146 10165 10183 10200 10220 10241 10263 10285 10308 10331 10352 10370 10391 10414
10138 10128 10117 10105 10095 10085 10076 10069 10062 10058 10056 10054 10054 10054 10057 10061 10066 10073 10082 10091 10101 10112 10124 10138 10153 10168 10184 10202 10222 10242 10265 10287 10308 10328 10350 10370 10393 10412
10149 10138 10128 10117 10107 10098 10090 10083 10076 10070 10066 10064 10065 10066 10067 10072 10076 10082 10090 10100 10109 10119 10129 10141 10156 10172 10189 10206 10224 10244 10265 10286 10308 10328 10346 10367 10385 10402